#timestamp,LO_Frequency,Hit 
1501887615.4,286047114.9,N
1501887635.2,286047117.2,N
1501887655.0,286047117.7,N
1501887655.9,286047117.7,N
1501887675.8,286047119.5,N
1501887695.6,286047116.9,N
1501887715.4,286047118.3,N
1501887735.3,286047118.6,N
1501887755.1,286047118.3,N
1501887756.0,286047118.3,N
1501887775.8,286047118.6,N
1501887795.7,286047118.3,N
1501887815.5,286047119.6,N
1501887835.3,286047121.0,N
1501887855.2,286047120.8,N
1501887875.9,286047120.5,N
1501887895.7,286047118.1,N
1501887915.5,286047120.9,N
1501887935.4,286047118.4,N
1501887955.2,286047120.9,N
1501887975.0,286047121.4,N
1501887975.9,286047121.4,N
1501887995.8,286047121.4,N
1501888015.6,286047122.4,N
1501888035.4,286047121.8,N
1501888055.3,286047122.3,N
1501888075.1,286047121.6,N
1501888076.0,286047121.6,N
1501888095.8,286047122.7,N
1501888115.7,286047119.7,N
1501888135.5,286047120.7,N
1501888155.3,286047118.2,N
1501888175.2,286047120.4,N
1501888195.9,286047118.7,N
1501888215.7,286047118.2,N
1501888235.5,286047120.4,N
1501888255.4,286047120.6,N
1501888275.2,286047118.2,N
1501888295.0,286047118.3,N
1501888295.9,286047118.3,N
1501888315.8,286047118.9,N
1501888335.6,286047119.3,N
1501888355.4,286047115.0,N
1501888375.3,286047117.5,N
1501888395.1,286047115.3,N
1501888396.0,286047115.3,N
1501888415.8,286047117.0,N
1501888435.7,286047117.0,N
1501888455.5,286047117.6,N
1501888475.3,286047116.7,N
1501888495.2,286047116.5,N
1501888515.9,286047118.1,N
1501888535.7,286047121.2,N
1501888555.5,286047118.1,N
1501888575.4,286047118.4,N
1501888595.2,286047120.3,N
1501888615.0,286047120.7,N
1501888615.9,286047120.7,N
1501888635.8,286047120.0,N
1501888655.6,286047120.6,N
1501888675.4,286047120.9,N
1501888695.3,286047121.8,N
1501888715.1,286047123.2,N
1501888716.0,286047123.2,N
1501888735.8,286047125.6,N
1501888755.7,286047126.0,N
1501888775.5,286047125.9,N
1501888795.3,286047126.0,N
1501888815.1,286047127.2,N
1501888835.9,286047126.7,N
1501888855.7,286047125.1,N
1501888875.5,286047125.5,N
1501888895.4,286047124.8,N
1501888915.2,286047125.8,N
1501888935.0,286047126.0,N
1501888935.9,286047126.0,N
1501888955.8,286047123.2,N
1501888975.6,286047124.0,N
1501888995.4,286047122.1,N
1501889015.3,286047122.8,N
1501889035.1,286047119.8,N
1501889036.0,286047119.8,N
1501889055.8,286047121.2,N
1501889075.6,286047122.7,N
1501889095.5,286047119.9,N
1501889115.3,286047120.0,N
1501889135.1,286047118.9,N
1501889155.9,286047121.2,N
1501889175.7,286047118.7,N
1501889195.5,286047121.2,N
1501889215.4,286047116.9,N
1501889235.2,286047119.6,N
1501889255.0,286047119.4,N
1501889255.9,286047119.4,N
1501889275.8,286047119.5,N
1501889295.6,286047115.0,N
1501889315.4,286047119.7,N
1501889335.3,286047118.8,N
1501889355.1,286047118.6,N
1501889356.0,286047118.6,N
1501889375.8,286047120.5,N
1501889395.6,286047121.3,N
1501889415.5,286047119.9,N
1501889435.3,286047122.8,N
1501889455.1,286047122.3,N
1501889475.9,286047121.0,N
1501889495.7,286047121.1,N
1501889515.5,286047118.1,N
1501889535.4,286047120.3,N
1501889555.2,286047120.2,N
1501889575.0,286047119.1,N
1501889575.9,286047119.1,N
1501889595.8,286047118.2,N
1501889615.6,286047118.5,N
1501889635.4,286047119.5,N
1501889655.3,286047120.3,N
1501889675.1,286047120.6,N
1501889676.0,286047120.6,N
1501889695.8,286047118.2,N
1501889715.6,286047119.7,N
1501889735.5,286047122.6,N
1501889755.3,286047121.5,N
1501889775.1,286047121.6,N
1501889795.9,286047122.5,N
1501889815.7,286047118.1,N
1501889835.5,286047118.2,N
1501889855.4,286047120.0,N
1501889875.2,286047120.5,N
1501889895.0,286047118.9,N
1501889895.9,286047118.9,N
1501889915.8,286047117.0,N
1501889935.6,286047119.1,N
1501889955.4,286047116.7,N
1501889975.3,286047119.1,N
1501889995.1,286047117.7,N
1501889996.0,286047117.7,N
1501890015.8,286047115.4,N
1501890035.7,286047115.0,N
1501890055.5,286047115.5,N
1501890075.3,286047117.2,N
1501890095.2,286047119.8,N
1501890115.9,286047118.8,N
1501890135.7,286047119.7,N
1501890155.5,286047123.7,N
1501890175.4,286047122.0,N
1501890195.2,286047125.4,N
1501890215.0,286047125.7,N
1501890215.9,286047125.7,N
1501890235.8,286047123.1,N
1501890255.6,286047125.9,N
1501890275.4,286047123.2,N
1501890295.3,286047124.2,N
1501890315.1,286047125.6,N
1501890316.0,286047125.6,N
1501890335.8,286047123.6,N
1501890355.7,286047121.9,N
1501890375.5,286047121.3,N
1501890395.3,286047121.5,N
1501890415.2,286047122.2,N
1501890435.9,286047121.8,N
1501890455.7,286047122.5,N
1501890475.5,286047122.5,N
1501890495.4,286047122.5,N
1501890515.2,286047119.8,N
1501890535.0,286047119.8,N
1501890535.9,286047119.8,N
1501890555.8,286047121.6,N
1501890575.6,286047121.6,N
1501890595.4,286047122.4,N
1501890615.3,286047120.8,N
1501890635.1,286047120.9,N
1501890636.0,286047120.9,N
1501890655.8,286047120.6,N
1501890675.7,286047120.1,N
1501890695.5,286047120.2,N
1501890715.3,286047121.1,N
1501890735.2,286047120.8,N
1501890755.9,286047120.8,N
1501890775.7,286047122.6,N
1501890795.6,286047120.0,N
1501890815.4,286047124.4,N
1501890835.2,286047121.0,N
1501890855.0,286047120.0,N
1501890856.0,286047120.0,N
1501890875.8,286047120.0,N
1501890895.6,286047120.7,N
1501890915.4,286047122.3,N
1501890935.3,286047119.9,N
1501890955.1,286047119.8,N
1501890975.8,286047122.4,N
1501890995.7,286047120.2,N
1501891015.5,286047122.6,N
1501891035.3,286047122.0,N
1501891055.2,286047123.2,N
1501891075.9,286047123.7,N
1501891095.7,286047124.2,N
1501891115.6,286047123.2,N
1501891135.4,286047123.8,N
1501891155.2,286047123.9,N
1501891175.0,286047124.5,N
1501891176.0,286047124.5,N
1501891195.8,286047125.5,N
